Weather History for Naples, FL

Change the Weather History Date:

Tuesday, December 11, 2012

  Actual Average Record
Temperature  
Mean Temperature 76 °F 67 °F  
Max Temperature 80 °F 77 °F 87 °F (1971)
Min Temperature 71 °F 58 °F 35 °F (1962)
Degree Days  
Heating Degree Days 0 2  
Month to date heating degree days 0 17  
Since 1 July heating degree days 13 31  
Cooling Degree Days 11 4  
Month to date cooling degree days 83 54  
Year to date cooling degree days 4049 3873  
Growing Degree Days 25 (Base 50)    
Moisture  
Dew Point 73 °F    
Average Humidity 91    
Maximum Humidity 100    
Minimum Humidity 82    
Precipitation  
Precipitation 1.22 in 0.05 in 1.51 in (1967)
Month to date precipitation 1.64 0.51  
Year to date precipitation 37.79 50.95  
Snow  
Snow 0.00 in - - ()
Month to date snowfall 0.0  
Since 1 July snowfall 0.0  
Snow Depth 0.00 in    
Sea Level Pressure  
Sea Level Pressure 29.97 in    
Wind  
Wind Speed 6 mph (SSE)    
Max Wind Speed 17 mph    
Max Gust Speed 89 mph    
Visibility 6 miles    
Events Rain , Thunderstorm    
T = Trace of Precipitation, MM = Missing Value Source: NWS Daily Summary

Daily Weather History Graph

Daily Weather History Graph

Search for Another Location

Airport:

Trip Planner

Search our weather history database for the weather conditions in past years. The results will help you decide how hot, cold, wet, or windy it might be!

Date:

Astronomy

Dec. 11, 2012 Rise Set
Actual Time 7:04 AM EST 5:36 PM EST
Civil Twilight 6:39 AM EST 6:01 PM EST
Nautical Twilight 6:10 AM EST 6:30 PM EST
Astronomical Twilight 5:42 AM EST 6:58 PM EST
Moon 5:03 AM EST (12/11) 4:10 PM EST (12/11)
Length of Visible Light 11h 22m
Length of Day
10h 31m
Waning Crescent, 4% of the Moon is Illuminated
Dec 11
Waning Crescent
Dec 13
New
Dec 20
First Quarter
Dec 28
Full
Jan 4
Last Quarter

Hourly Weather History & Observations

Time (EST) Temp. Dew Point Humidity Pressure Visibility Wind Dir Wind Speed Gust Speed Precip Events Conditions
12:00 AM 73.4 °F 71.6 °F 94% 29.97 in 1.8 mi SSW 17.3 mph 23.0 mph 0.12 in Rain , Thunderstorm Heavy Rain
12:12 AM 71.6 °F 71.6 °F 100% 29.96 in 2.0 mi South 9.2 mph 18.4 mph 0.23 in Rain , Thunderstorm Heavy Rain
12:14 AM 71.6 °F 71.6 °F 100% 29.96 in 3.0 mi South 9.2 mph 18.4 mph 0.23 in Rain , Thunderstorm Rain
12:22 AM 71.6 °F 71.6 °F 100% 29.96 in 6.0 mi SSE 6.9 mph - 0.24 in Rain Light Rain
12:53 AM 71.1 °F 71.1 °F 100% 29.95 in 7.0 mi WSW 17.3 mph - 0.26 in Rain Light Rain
1:53 AM 71.1 °F 71.1 °F 100% 29.93 in 10.0 mi Calm Calm - 0.00 in   Mostly Cloudy
2:53 AM 71.1 °F 71.1 °F 100% 29.93 in 10.0 mi ESE 3.5 mph - 0.01 in   Overcast
3:00 AM 71.6 °F 71.6 °F 100% 29.93 in 10.0 mi ESE 3.5 mph - 0.00 in Rain Light Rain
3:09 AM 71.6 °F 71.6 °F 100% 29.94 in 9.0 mi Calm Calm - 0.00 in Rain , Thunderstorm Light Rain
3:26 AM 71.6 °F 71.6 °F 100% 29.95 in 10.0 mi NW 3.5 mph - 0.00 in Thunderstorm Overcast
3:53 AM 72.0 °F 72.0 °F 100% 29.94 in 6.0 mi North 3.5 mph - 0.03 in Rain , Thunderstorm Thunderstorms and Rain
4:01 AM 71.6 °F 71.6 °F 100% 29.94 in 1.8 mi NNE 5.8 mph - 0.12 in Rain , Thunderstorm Heavy Thunderstorms and Rain
4:06 AM 71.6 °F 71.6 °F 100% 29.95 in 2.0 mi Calm Calm - 0.13 in Rain , Thunderstorm Heavy Thunderstorms and Rain
4:14 AM 71.6 °F 71.6 °F 100% 29.94 in 1.8 mi North 5.8 mph - 0.20 in Rain , Thunderstorm Heavy Thunderstorms and Rain
4:24 AM 71.6 °F 71.6 °F 100% 29.94 in 2.0 mi NW 6.9 mph - 0.29 in Rain , Thunderstorm Heavy Thunderstorms and Rain
4:26 AM 71.6 °F 71.6 °F 100% 29.94 in 1.8 mi NW 5.8 mph - 0.31 in Rain , Thunderstorm Heavy Thunderstorms and Rain
4:33 AM 71.6 °F 71.6 °F 100% 29.94 in 1.0 mi NW 3.5 mph - 0.50 in Rain , Thunderstorm Heavy Thunderstorms and Rain
4:53 AM 71.1 °F 71.1 °F 100% 29.94 in 1.2 mi Variable 3.5 mph - 0.69 in Rain , Thunderstorm Heavy Thunderstorms and Rain
4:57 AM 71.6 °F 71.6 °F 100% 29.94 in 0.8 mi Calm Calm - 0.07 in Rain , Thunderstorm Heavy Thunderstorms and Rain
5:01 AM 71.6 °F - N/A% 29.93 in 1.0 mi Calm Calm - 0.13 in Rain , Thunderstorm Heavy Thunderstorms and Rain
5:08 AM 71.6 °F - N/A% 29.93 in 2.0 mi Variable 4.6 mph - 0.17 in Rain , Thunderstorm Heavy Thunderstorms and Rain
5:11 AM 71.6 °F - N/A% 29.93 in 3.0 mi SSE 5.8 mph - 0.17 in Rain , Thunderstorm Light Thunderstorms and Rain
5:21 AM 71.6 °F - N/A% 29.94 in 10.0 mi South 4.6 mph - 0.17 in   Mostly Cloudy
5:53 AM 71.1 °F 71.1 °F 100% 29.94 in 10.0 mi Calm Calm - 0.17 in   Mostly Cloudy
6:53 AM 71.1 °F 71.1 °F 100% 29.96 in 9.0 mi ESE 8.1 mph - N/A   Overcast
7:53 AM 72.0 °F 72.0 °F 100% 29.97 in 10.0 mi ESE 8.1 mph - 0.01 in   Overcast
8:24 AM 71.6 °F 71.6 °F 100% 29.99 in 7.0 mi SSE 10.4 mph - 0.00 in Rain , Thunderstorm Light Thunderstorms and Rain
8:37 AM 71.6 °F 71.6 °F 100% 30.00 in 1.8 mi SE 10.4 mph - 0.09 in Rain , Thunderstorm Heavy Thunderstorms and Rain
8:46 AM 71.6 °F - N/A% 29.99 in 2.5 mi SE 10.4 mph - 0.12 in Rain , Thunderstorm Heavy Thunderstorms and Rain
8:53 AM 73.0 °F 73.0 °F 100% 30.00 in 4.0 mi SE 12.7 mph - 0.12 in Rain , Thunderstorm Thunderstorms and Rain
9:53 AM 72.0 °F 72.0 °F 100% 30.01 in 10.0 mi North - - 0.00 in Thunderstorm Mostly Cloudy
10:15 AM 73.4 °F 68.0 °F 83% 30.03 in 10.0 mi North - - N/A   Mostly Cloudy
10:53 AM 72.0 °F 72.0 °F 100% 30.01 in 10.0 mi South 8.1 mph - N/A   Mostly Cloudy
11:53 AM 75.0 °F 72.0 °F 90% 29.99 in 10.0 mi South 6.9 mph - N/A   Partly Cloudy
12:53 PM 77.0 °F 72.0 °F 84% 29.96 in 10.0 mi SSW 12.7 mph - N/A   Partly Cloudy
1:53 PM 79.0 °F 73.9 °F 84% 29.94 in 8.0 mi South 11.5 mph - N/A   Partly Cloudy
2:53 PM 79.0 °F 75.0 °F 88% 29.94 in 7.0 mi South 13.8 mph - N/A   Clear
3:53 PM 78.1 °F 75.0 °F 90% 29.93 in 7.0 mi South 8.1 mph - N/A   Clear
4:53 PM 78.1 °F 73.9 °F 87% 29.96 in 8.0 mi SSW 3.5 mph - N/A   Mostly Cloudy
5:53 PM 77.0 °F 75.0 °F 94% 29.96 in 8.0 mi SSE 4.6 mph - N/A   Scattered Clouds
6:53 PM 75.9 °F 75.0 °F 97% 29.96 in 7.0 mi Calm Calm - N/A   Scattered Clouds
7:53 PM 75.0 °F 73.9 °F 96% 29.98 in 6.0 mi Calm Calm - N/A   Mostly Cloudy
8:53 PM 75.0 °F 75.0 °F 100% 30.01 in 6.0 mi SE 3.5 mph - N/A   Clear
9:53 PM 75.0 °F 75.0 °F 100% 30.02 in 5.0 mi Calm Calm - N/A   Scattered Clouds
10:01 PM 75.2 °F 75.2 °F 100% 30.03 in 5.0 mi Calm Calm - N/A   Mostly Cloudy
10:16 PM 75.2 °F 75.2 °F 100% 30.04 in 5.0 mi South 3.5 mph - N/A   Mostly Cloudy
10:23 PM 75.2 °F 75.2 °F 100% 30.05 in 5.0 mi Calm Calm - N/A   Mostly Cloudy
10:53 PM 75.0 °F 75.0 °F 100% 30.04 in 4.0 mi SSE 3.5 mph - N/A   Scattered Clouds
11:53 PM 75.0 °F 75.0 °F 100% 30.04 in 4.0 mi SE 6.9 mph - N/A   Scattered Clouds